GW1452 Weather Reports


time (UTC)temp
F
wind
direction
speed
knots
gust
knots
rain 1hr
in
rain 24hr
in
rain mn
in
humidity
%
barometer
mb
20260906224607 96 136 1.7 7.8 0.00 0.00 0.00 35 1012.4
20260906223110 97 234 1.7 5.2 0.00 0.00 0.00 33 1012.6
20260906221607 96 138 1.7 7.0 0.00 0.00 0.00 33 1012.7
20260906220104 97 182 2.6 7.8 0.00 0.00 0.00 34 1012.8
20260906214617 96 140 1.7 7.8 0.00 0.00 0.00 34 1012.9
20260906213101 96 143 3.5 8.7 0.00 0.00 0.00 35 1013.0
20260906211558 97 148 4.3 7.8 0.00 0.00 0.00 35 1013.3
20260906210113 97 122 2.6 9.6 0.00 0.00 0.00 35 1013.5
20260906204604 97 136 3.5 8.7 0.00 0.00 0.00 37 1013.8
20260906203101 96 105 3.5 7.0 0.00 0.00 0.00 38 1013.8
20260906201637 97 140 2.6 11.3 0.00 0.00 0.00 37 1014.0
20260906200104 96 119 4.3 10.4 0.00 0.00 0.00 37 1014.1
20260906194607 96 138 3.5 9.6 0.00 0.00 0.00 37 1014.1
20260906193111 98 141 1.7 9.6 0.00 0.00 0.00 36 1014.2
20260906191609 96 112 2.6 10.4 0.00 0.00 0.00 39 1014.4
20260906190103 97 180 2.6 7.0 0.00 0.00 0.00 38 1014.6
20260906184602 95 197 0.9 9.6 0.00 0.00 0.00 39 1014.9
20260906183100 95 154 1.7 4.3 0.00 0.00 0.00 42 1015.1
20260906181633 92 138 1.7 6.1 0.00 0.00 0.00 44 1015.4
20260906180107 91 157 1.7 7.0 0.00 0.00 0.00 46 1015.7
20260906174601 92 138 0.9 6.1 0.00 0.00 0.00 44 1015.9
20260906173059 91 171 1.7 4.3 0.00 0.00 0.00 46 1016.0
20260906171602 90 140 1.7 7.8 0.00 0.00 0.00 46 1016.3
20260906164558 92 243 0.9 4.3 0.00 0.00 0.00 45 1016.3
20260906163103 92 176 0.0 2.6 0.00 0.00 0.00 48 1016.4
20260906161609 91 148 0.9 3.5 0.00 0.00 0.00 50 1016.6
20260906154559 88 0 0.0 3.5 0.00 0.00 0.00 56 1016.8
20260906153053 89 0 0.0 3.5 0.00 0.00 0.00 55 1016.6
20260906151601 86 319 0.0 2.6 0.00 0.00 0.00 59 1016.5
20260906150055 85 304 0.9 2.6 0.00 0.00 0.00 61 1016.5
20260906144551 83 312 1.7 3.5 0.00 0.00 0.00 64 1016.5
20260906143101 82 262 0.0 3.5 0.00 0.00 0.00 66 1016.4
20260906141601 80 0 0.9 3.5 0.00 0.00 0.00 68 1016.3
20260906140108 79 259 0.0 1.7 0.00 0.00 0.00 70 1016.4
20260906134616 78 300 0.9 2.6 0.00 0.00 0.00 71 1016.1
20260906133108 76 232 0.0 2.6 0.00 0.00 0.00 74 1015.9
20260906131558 76 0 0.0 1.7 0.00 0.00 0.00 75 1016.0
20260906130109 74 0 0.0 0.9 0.00 0.00 0.00 77 1015.8
20260906124602 73 0 0.0 0.0 0.00 0.00 0.00 78 1015.6
20260906123101 73 0 0.0 0.0 0.00 0.00 0.00 79 1015.4
20260906121607 74 0 0.0 0.9 0.00 0.00 0.00 78 1015.3
20260906120054 73 0 0.0 0.0 0.00 0.00 0.00 78 1015.2
20260906114625 74 0 0.0 0.9 0.00 0.00 0.00 77 1014.9
20260906113113 74 0 0.0 0.0 0.00 0.00 0.00 76 1014.9
20260906111556 74 0 0.0 0.9 0.00 0.00 0.00 76 1014.7
20260906104559 75 0 0.0 0.0 0.00 0.00 0.00 74 1014.6
20260906103053 75 0 0.0 0.0 0.00 0.00 0.00 75 1014.7
20260906101551 75 0 0.0 0.0 0.00 0.00 0.00 75 1014.5
20260906100059 76 0 0.0 1.7 0.00 0.00 0.00 73 1014.5
20260906094558 76 233 0.0 0.0 0.00 0.00 0.00 72 1014.5
20260906093053 77 0 0.0 2.6 0.00 0.00 0.00 71 1014.4
20260906091552 77 0 0.9 3.5 0.00 0.00 0.00 69 1014.2
20260906090111 77 190 0.0 1.7 0.00 0.00 0.00 70 1014.2
20260906084557 77 0 0.0 0.9 0.00 0.00 0.00 70 1014.2
20260906083054 76 0 0.0 0.0 0.00 0.00 0.00 71 1014.1
20260906081555 77 0 0.0 0.0 0.00 0.00 0.00 71 1014.3
20260906080106 77 0 0.0 0.0 0.00 0.00 0.00 71 1014.2
20260906074559 77 0 0.0 0.0 0.00 0.00 0.00 70 1014.3
20260906073054 77 0 0.0 0.0 0.00 0.00 0.00 69 1014.4
20260906071614 78 0 0.0 0.0 0.00 0.00 0.00 68 1014.5
20260906070059 78 0 0.0 0.0 0.00 0.00 0.00 67 1014.8
20260906064555 78 0 0.0 0.0 0.00 0.00 0.00 66 1014.8
20260906063102 79 0 0.0 0.0 0.00 0.00 0.00 65 1014.7
20260906061606 79 0 0.0 0.0 0.00 0.00 0.00 64 1014.9
20260906060150 81 0 0.0 0.0 0.00 0.00 0.00 61 1015.1
20260906054554 81 0 0.0 0.0 0.00 0.00 0.00 60 1015.0
20260906053100 82 0 0.0 2.6 0.00 0.00 0.00 59 1015.0
20260906051553 83 0 0.0 1.7 0.00 0.00 0.00 58 1014.9
20260906050116 83 190 0.0 1.7 0.00 0.00 0.00 57 1015.0
20260906045056 85 0 0.0 0.9 0.00 0.00 0.00 56 949.1
20260906044559 84 190 0.0 2.6 0.00 0.00 0.00 56 1014.9
20260906044035 85 86 0.0 0.9 0.00 0.00 0.00 56 949.0
20260906043100 84 128 0.0 2.6 0.00 0.00 0.00 55 1014.8
20260906043034 85 103 0.0 0.9 0.00 0.00 0.00 55 949.1
20260906042034 86 115 0.0 1.7 0.00 0.00 0.00 54 949.1
20260906041602 84 184 0.0 2.6 0.00 0.00 0.00 54 1014.7
20260906041013 86 122 0.0 0.9 0.00 0.00 0.00 54 948.9
20260906040106 85 151 0.9 4.3 0.00 0.00 0.00 53 1014.6
20260906034606 86 134 0.9 5.2 0.00 0.00 0.00 53 1014.6
20260906033056 86 174 2.6 5.2 0.00 0.00 0.00 51 1014.4
20260906031627 87 146 0.9 4.3 0.00 0.00 0.00 50 1014.0
20260906030106 88 0 0.9 4.3 0.00 0.00 0.00 49 1013.7
20260906024608 88 140 1.7 6.1 0.00 0.00 0.00 49 1013.4
20260906023115 89 143 1.7 7.0 0.00 0.00 0.00 48 1013.0
20260906021601 89 136 2.6 7.0 0.00 0.00 0.00 47 1012.9
20260906020101 90 165 0.9 5.2 0.00 0.00 0.00 43 1012.6
20260906014554 91 136 2.6 6.1 0.00 0.00 0.00 42 1012.5
20260906013101 91 163 1.7 4.3 0.00 0.00 0.00 42 1012.3
20260906011610 91 83 1.7 4.3 0.00 0.00 0.00 43 1012.0
20260906004603 93 132 1.7 5.2 0.00 0.00 0.00 41 1012.0
20260906003105 94 93 1.7 5.2 0.00 0.00 0.00 40 1011.8
20260906001604 95 82 0.9 6.1 0.00 0.00 0.00 39 1011.9
20260906000108 95 139 1.7 6.1 0.00 0.00 0.00 38 1011.9
20260905234556 96 121 1.7 7.0 0.00 0.00 0.00 37 1011.6
20260905233106 96 147 2.6 7.8 0.00 0.00 0.00 36 1011.6
20260905231618 97 140 2.6 7.0 0.00 0.00 0.00 35 1011.5
20260905230104 97 160 3.5 8.7 0.00 0.00 0.00 36 1011.4